Wetterdaten: Woche 25.04.16 - 01.05.16 (KW17)
Datum Zeit Temp. I. Temp. A. Feuchte I. Feuchte A. Luftdruck Regen Wind Richtung Sonnenschein UV Solar Taupunkt Windchill Windben
25.04.2016 00:00 22,6 C 0,4 C 44 % 89 % 1011,2 hPa 0,0 l/m 0,6 km/h (0 Bft) SW 0,00 h 0,0 UV-I 0 W/m -1,2 C 0,4 C 1,6 km/h (1 Bft)
25.04.2016 01:00 22,5 C -0,1 C 44 % 90 % 1011,3 hPa 0,0 l/m 0,6 km/h (0 Bft) S 0,00 h 0,0 UV-I 0 W/m -1,5 C -0,1 C 0,9 km/h (0 Bft)
25.04.2016 02:00 22,4 C -0,3 C 45 % 91 % 1011,1 hPa 0,0 l/m 0,2 km/h (0 Bft) S 0,00 h 0,0 UV-I 0 W/m -1,6 C -0,3 C 0,4 km/h (0 Bft)
25.04.2016 03:00 22,4 C -0,2 C 45 % 92 % 1011,0 hPa 0,0 l/m 0,9 km/h (0 Bft) W-SW 0,00 h 0,0 UV-I 0 W/m -1,3 C -0,2 C 2,1 km/h (1 Bft)
25.04.2016 04:00 22,3 C 0,3 C 46 % 92 % 1011,0 hPa 0,0 l/m 2,6 km/h (1 Bft) W-SW 0,00 h 0,0 UV-I 0 W/m -0,8 C 0,2 C 5,1 km/h (1 Bft)
25.04.2016 05:00 22,3 C 0,3 C 46 % 92 % 1010,8 hPa 0,0 l/m 4,2 km/h (1 Bft) W 0,00 h 0,0 UV-I 0 W/m -0,8 C 0,3 C 7,0 km/h (2 Bft)
25.04.2016 06:00 22,3 C 0,4 C 46 % 92 % 1010,9 hPa 0,0 l/m 2,3 km/h (1 Bft) W 0,00 h 0,0 UV-I 25 W/m -0,8 C 0,4 C 4,6 km/h (1 Bft)
25.04.2016 07:00 22,3 C 0,9 C 46 % 87 % 1011,1 hPa 0,0 l/m 2,1 km/h (1 Bft) W 0,47 h 0,6 UV-I 137 W/m -1,1 C 0,8 C 5,0 km/h (1 Bft)
25.04.2016 08:00 22,3 C 1,9 C 47 % 81 % 1011,3 hPa 0,0 l/m 7,1 km/h (2 Bft) W 0,57 h 0,8 UV-I 218 W/m -1,1 C 0,1 C 13,1 km/h (3 Bft)
25.04.2016 09:00 22,7 C 2,8 C 44 % 70 % 1011,4 hPa 0,0 l/m 9,2 km/h (2 Bft) W-NW 0,60 h 1,0 UV-I 217 W/m -2,2 C 0,2 C 13,7 km/h (3 Bft)
25.04.2016 10:00 22,9 C 3,0 C 42 % 73 % 1011,3 hPa 0,0 l/m 7,6 km/h (2 Bft) W-SW 0,82 h 1,8 UV-I 379 W/m -1,3 C 1,1 C 12,1 km/h (2 Bft)
25.04.2016 11:00 23,2 C 3,4 C 42 % 73 % 1011,1 hPa 0,0 l/m 9,3 km/h (2 Bft) W-SW 0,92 h 2,6 UV-I 479 W/m -1,0 C 0,7 C 15,1 km/h (3 Bft)
25.04.2016 12:00 23,2 C 4,2 C 41 % 70 % 1011,0 hPa 0,2 l/m 8,5 km/h (2 Bft) W-NW 0,73 h 2,4 UV-I 434 W/m -0,9 C 1,6 C 12,8 km/h (3 Bft)
25.04.2016 13:00 23,1 C 4,8 C 42 % 64 % 1010,7 hPa 0,0 l/m 11,5 km/h (2 Bft) W-SW 1,00 h 3,5 UV-I 596 W/m -1,6 C 0,9 C 18,1 km/h (3 Bft)
25.04.2016 14:00 23,2 C 5,1 C 43 % 58 % 1010,4 hPa 0,0 l/m 11,1 km/h (2 Bft) W-SW 1,00 h 3,3 UV-I 610 W/m -2,5 C 1,6 C 18,1 km/h (3 Bft)
25.04.2016 15:00 23,1 C 5,0 C 44 % 66 % 1009,9 hPa 0,0 l/m 10,1 km/h (2 Bft) S 0,72 h 2,1 UV-I 395 W/m -0,7 C 1,9 C 16,7 km/h (3 Bft)
25.04.2016 16:00 22,9 C 5,7 C 41 % 60 % 1009,6 hPa 0,2 l/m 11,9 km/h (2 Bft) W-SW 1,00 h 2,3 UV-I 592 W/m -1,5 C 1,8 C 20,2 km/h (4 Bft)
25.04.2016 17:00 22,8 C 5,2 C 40 % 60 % 1009,4 hPa 0,0 l/m 11,5 km/h (2 Bft) W-SW 0,83 h 1,2 UV-I 301 W/m -1,8 C 1,6 C 18,8 km/h (3 Bft)
25.04.2016 18:00 22,9 C 4,4 C 41 % 68 % 1008,9 hPa 0,0 l/m 6,3 km/h (2 Bft) S 0,20 h 0,7 UV-I 89 W/m -1,1 C 3,4 C 11,8 km/h (2 Bft)
25.04.2016 19:00 22,9 C 3,6 C 42 % 76 % 1008,5 hPa 0,0 l/m 4,9 km/h (1 Bft) S 0,00 h 0,0 UV-I 28 W/m -0,2 C 3,2 C 8,9 km/h (2 Bft)
25.04.2016 20:00 23,2 C 3,1 C 43 % 76 % 1008,1 hPa 0,0 l/m 3,8 km/h (1 Bft) S 0,00 h 0,0 UV-I 6 W/m -0,7 C 3,0 C 8,0 km/h (2 Bft)
25.04.2016 21:00 23,2 C 2,6 C 43 % 81 % 1007,8 hPa 0,0 l/m 4,7 km/h (1 Bft) S 0,00 h 0,0 UV-I 0 W/m -0,3 C 2,5 C 8,4 km/h (2 Bft)
25.04.2016 22:00 23,4 C 2,7 C 44 % 80 % 1007,0 hPa 0,0 l/m 8,1 km/h (2 Bft) S 0,00 h 0,0 UV-I 0 W/m -0,3 C 1,0 C 13,3 km/h (3 Bft)
25.04.2016 23:00 23,2 C 2,7 C 44 % 83 % 1006,2 hPa 0,0 l/m 9,8 km/h (2 Bft) S 0,00 h 0,0 UV-I 0 W/m 0,2 C -0,2 C 15,9 km/h (3 Bft)
26.04.2016 00:00 22,9 C 2,6 C 44 % 87 % 1005,3 hPa 0,0 l/m 12,6 km/h (3 Bft) S 0,00 h 0,0 UV-I 0 W/m 0,7 C -2,1 C 19,7 km/h (3 Bft)
26.04.2016 01:00 22,8 C 2,3 C 44 % 90 % 1004,3 hPa 0,4 l/m 13,6 km/h (3 Bft) S 0,00 h 0,0 UV-I 0 W/m 0,8 C -3,2 C 20,6 km/h (4 Bft)
26.04.2016 02:00 22,7 C 1,5 C 44 % 93 % 1003,3 hPa 1,0 l/m 10,9 km/h (2 Bft) S-SO 0,00 h 0,0 UV-I 0 W/m 0,5 C -2,4 C 16,6 km/h (3 Bft)
26.04.2016 03:00 22,6 C 1,1 C 45 % 94 % 1002,5 hPa 0,6 l/m 8,4 km/h (2 Bft) S 0,00 h 0,0 UV-I 0 W/m 0,3 C -0,9 C 13,4 km/h (3 Bft)
26.04.2016 04:00 22,6 C 1,1 C 45 % 95 % 1001,9 hPa 0,6 l/m 7,8 km/h (2 Bft) S 0,00 h 0,0 UV-I 0 W/m 0,3 C -0,5 C 12,7 km/h (3 Bft)
26.04.2016 05:00 22,6 C 1,3 C 45 % 95 % 1001,1 hPa 0,8 l/m 10,5 km/h (2 Bft) S 0,00 h 0,0 UV-I 0 W/m 0,6 C -2,2 C 16,8 km/h (3 Bft)
26.04.2016 06:00 22,9 C 1,7 C 47 % 95 % 1000,7 hPa 0,6 l/m 11,7 km/h (2 Bft) S 0,00 h 0,0 UV-I 10 W/m 1,0 C -2,7 C 17,6 km/h (3 Bft)
26.04.2016 07:00 23,3 C 2,5 C 45 % 95 % 1000,1 hPa 0,2 l/m 12,9 km/h (3 Bft) S 0,00 h 0,0 UV-I 27 W/m 1,8 C -2,6 C 19,6 km/h (3 Bft)
26.04.2016 08:00 23,3 C 3,3 C 43 % 94 % 999,7 hPa 0,4 l/m 12,8 km/h (3 Bft) S 0,00 h 0,5 UV-I 69 W/m 2,4 C -1,6 C 19,8 km/h (4 Bft)
26.04.2016 09:00 23,3 C 2,7 C 42 % 94 % 1000,3 hPa 0,8 l/m 7,2 km/h (2 Bft) W 0,03 h 0,6 UV-I 100 W/m 1,8 C 1,2 C 12,3 km/h (3 Bft)
26.04.2016 10:00 22,9 C 2,3 C 41 % 94 % 1001,4 hPa 0,4 l/m 6,6 km/h (2 Bft) W-NW 0,40 h 1,0 UV-I 124 W/m 1,4 C 0,5 C 11,0 km/h (2 Bft)
26.04.2016 11:00 23,2 C 2,7 C 41 % 89 % 1001,9 hPa 0,0 l/m 8,4 km/h (2 Bft) W 1,00 h 1,8 UV-I 298 W/m 1,0 C 0,4 C 14,6 km/h (3 Bft)
26.04.2016 12:00 23,0 C 3,5 C 40 % 83 % 1002,1 hPa 0,0 l/m 11,5 km/h (2 Bft) W-SW 1,00 h 2,3 UV-I 388 W/m 1,0 C -0,4 C 18,3 km/h (3 Bft)
26.04.2016 13:00 22,9 C 3,5 C 40 % 76 % 1002,6 hPa 0,0 l/m 14,4 km/h (3 Bft) W-SW 1,00 h 2,4 UV-I 378 W/m -0,3 C -2,2 C 22,3 km/h (4 Bft)
26.04.2016 14:00 22,8 C 3,9 C 41 % 71 % 1003,0 hPa 0,0 l/m 11,9 km/h (2 Bft) W-SW 0,85 h 2,1 UV-I 338 W/m -0,9 C -0,3 C 18,7 km/h (3 Bft)
26.04.2016 15:00 22,8 C 3,8 C 41 % 73 % 1003,1 hPa 0,0 l/m 8,3 km/h (2 Bft) W-SW 0,90 h 1,6 UV-I 278 W/m -0,6 C 1,6 C 14,2 km/h (3 Bft)
26.04.2016 16:00 22,7 C 4,6 C 41 % 69 % 1003,2 hPa 0,0 l/m 9,3 km/h (2 Bft) SW 0,88 h 1,6 UV-I 287 W/m -0,6 C 2,2 C 16,4 km/h (3 Bft)
26.04.2016 17:00 22,7 C 4,8 C 41 % 66 % 1003,3 hPa 0,0 l/m 9,9 km/h (2 Bft) S 0,52 h 0,9 UV-I 186 W/m -1,1 C 1,8 C 15,5 km/h (3 Bft)
26.04.2016 18:00 22,6 C 4,9 C 41 % 62 % 1003,3 hPa 0,0 l/m 7,6 km/h (2 Bft) S 0,20 h 0,6 UV-I 122 W/m -1,8 C 3,4 C 13,0 km/h (3 Bft)
26.04.2016 19:00 22,6 C 3,9 C 41 % 67 % 1003,6 hPa 0,0 l/m 10,0 km/h (2 Bft) S 0,00 h 0,0 UV-I 25 W/m -1,6 C 1,0 C 15,3 km/h (3 Bft)
26.04.2016 20:00 22,5 C 2,9 C 41 % 73 % 1003,7 hPa 0,0 l/m 7,7 km/h (2 Bft) S 0,00 h 0,0 UV-I 8 W/m -1,6 C 1,0 C 12,3 km/h (3 Bft)
26.04.2016 21:00 22,4 C 2,2 C 41 % 76 % 1003,8 hPa 0,0 l/m 3,7 km/h (1 Bft) S 0,00 h 0,0 UV-I 0 W/m -1,6 C 2,1 C 7,1 km/h (2 Bft)
26.04.2016 22:00 22,6 C 1,8 C 41 % 78 % 1003,9 hPa 0,0 l/m 4,1 km/h (1 Bft) S 0,00 h 0,0 UV-I 0 W/m -1,6 C 1,7 C 7,5 km/h (2 Bft)
26.04.2016 23:00 22,9 C 1,8 C 41 % 81 % 1003,9 hPa 0,0 l/m 4,9 km/h (1 Bft) S 0,00 h 0,0 UV-I 0 W/m -1,2 C 1,4 C 9,5 km/h (2 Bft)
27.04.2016 00:00 22,9 C 1,8 C 40 % 85 % 1003,6 hPa 0,0 l/m 3,4 km/h (1 Bft) S 0,00 h 0,0 UV-I 0 W/m -0,5 C 1,7 C 7,0 km/h (2 Bft)
27.04.2016 01:00 22,8 C 1,8 C 40 % 87 % 1003,9 hPa 0,0 l/m 3,6 km/h (1 Bft) S 0,00 h 0,0 UV-I 0 W/m -0,2 C 1,7 C 8,0 km/h (2 Bft)
27.04.2016 02:00 22,5 C 1,6 C 40 % 88 % 1004,0 hPa 0,0 l/m 2,4 km/h (1 Bft) SW 0,00 h 0,0 UV-I 0 W/m -0,3 C 1,5 C 6,1 km/h (2 Bft)
27.04.2016 03:00 22,4 C 1,6 C 41 % 89 % 1004,4 hPa 0,0 l/m 4,0 km/h (1 Bft) SW 0,00 h 0,0 UV-I 0 W/m -0,0 C 1,4 C 8,9 km/h (2 Bft)
27.04.2016 04:00 22,3 C 1,5 C 41 % 89 % 1005,0 hPa 0,0 l/m 6,5 km/h (2 Bft) W-SW 0,00 h 0,0 UV-I 0 W/m -0,1 C 0,2 C 11,5 km/h (2 Bft)
27.04.2016 05:00 22,2 C 1,4 C 42 % 86 % 1005,5 hPa 0,0 l/m 7,7 km/h (2 Bft) W-SW 0,00 h 0,0 UV-I 0 W/m -0,7 C -0,3 C 13,3 km/h (3 Bft)
27.04.2016 06:00 22,2 C 1,1 C 42 % 84 % 1006,1 hPa 0,0 l/m 11,3 km/h (2 Bft) W-SW 0,00 h 0,0 UV-I 13 W/m -1,3 C -3,0 C 18,8 km/h (3 Bft)
27.04.2016 07:00 22,2 C 1,1 C 42 % 83 % 1006,8 hPa 0,0 l/m 8,7 km/h (2 Bft) W-SW 0,00 h 0,0 UV-I 39 W/m -1,4 C -1,5 C 15,6 km/h (3 Bft)
27.04.2016 08:00 22,2 C 1,2 C 42 % 82 % 1007,5 hPa 0,0 l/m 8,4 km/h (2 Bft) SW 0,00 h 0,5 UV-I 53 W/m -1,5 C -0,8 C 14,7 km/h (3 Bft)
27.04.2016 09:00 22,2 C 1,6 C 42 % 77 % 1007,5 hPa 0,0 l/m 10,7 km/h (2 Bft) W-SW 0,23 h 0,7 UV-I 121 W/m -2,0 C -2,0 C 16,9 km/h (3 Bft)
27.04.2016 10:00 22,2 C 2,3 C 41 % 72 % 1007,5 hPa 0,0 l/m 14,4 km/h (3 Bft) W-SW 1,00 h 1,3 UV-I 218 W/m -2,2 C -3,6 C 23,2 km/h (4 Bft)
27.04.2016 11:00 22,4 C 2,8 C 41 % 70 % 1008,0 hPa 0,0 l/m 10,9 km/h (2 Bft) W-SW 0,30 h 1,0 UV-I 142 W/m -2,1 C -0,7 C 18,0 km/h (3 Bft)
27.04.2016 12:00 22,2 C 3,4 C 39 % 70 % 1008,5 hPa 0,0 l/m 10,0 km/h (2 Bft) S 0,68 h 1,3 UV-I 188 W/m -1,6 C 0,3 C 17,0 km/h (3 Bft)
27.04.2016 13:00 22,2 C 4,4 C 39 % 67 % 1008,8 hPa 0,0 l/m 10,8 km/h (2 Bft) SW 0,90 h 2,0 UV-I 297 W/m -1,2 C 1,0 C 17,0 km/h (3 Bft)
27.04.2016 14:00 22,2 C 5,4 C 40 % 57 % 1008,8 hPa 0,0 l/m 13,8 km/h (3 Bft) W-SW 1,00 h 1,8 UV-I 303 W/m -2,5 C 0,3 C 22,6 km/h (4 Bft)
27.04.2016 15:00 22,1 C 5,8 C 40 % 52 % 1008,9 hPa 0,0 l/m 15,3 km/h (3 Bft) W-SW 0,77 h 1,2 UV-I 205 W/m -3,3 C 0,2 C 23,8 km/h (4 Bft)
27.04.2016 16:00 22,3 C 6,3 C 40 % 53 % 1009,1 hPa 0,0 l/m 12,1 km/h (2 Bft) W-SW 0,77 h 1,3 UV-I 234 W/m -2,5 C 2,4 C 20,5 km/h (4 Bft)
27.04.2016 17:00 22,9 C 4,7 C 40 % 69 % 1009,9 hPa 0,0 l/m 12,8 km/h (3 Bft) W 0,00 h 0,6 UV-I 74 W/m -0,6 C 0,2 C 20,6 km/h (4 Bft)
27.04.2016 18:00 23,2 C 3,1 C 41 % 87 % 1010,7 hPa 0,2 l/m 9,7 km/h (2 Bft) W-SW 0,05 h 0,5 UV-I 85 W/m 1,1 C 0,4 C 15,6 km/h (3 Bft)
27.04.2016 19:00 23,0 C 3,6 C 41 % 83 % 1011,0 hPa 0,0 l/m 5,9 km/h (2 Bft) W-SW 0,00 h 0,0 UV-I 18 W/m 1,0 C 2,6 C 10,6 km/h (2 Bft)
27.04.2016 20:00 23,0 C 3,5 C 42 % 84 % 1011,5 hPa 0,0 l/m 3,6 km/h (1 Bft) S-SW 0,00 h 0,0 UV-I 5 W/m 1,0 C 3,4 C 7,6 km/h (2 Bft)
27.04.2016 21:00 23,2 C 3,0 C 42 % 85 % 1012,0 hPa 0,0 l/m 2,3 km/h (1 Bft) S 0,00 h 0,0 UV-I 0 W/m 0,8 C 3,0 C 5,9 km/h (2 Bft)
27.04.2016 22:00 23,3 C 2,3 C 42 % 87 % 1012,6 hPa 0,4 l/m 5,2 km/h (1 Bft) SW 0,00 h 0,0 UV-I 0 W/m 0,4 C 1,6 C 9,9 km/h (2 Bft)
27.04.2016 23:00 22,9 C 1,3 C 41 % 92 % 1012,9 hPa 0,2 l/m 4,1 km/h (1 Bft) SW 0,00 h 0,0 UV-I 0 W/m 0,2 C 1,1 C 8,5 km/h (2 Bft)
28.04.2016 00:00 22,7 C 1,3 C 42 % 93 % 1013,2 hPa 0,0 l/m 5,4 km/h (1 Bft) W-SW 0,00 h 0,0 UV-I 0 W/m 0,3 C 0,8 C 10,4 km/h (2 Bft)
28.04.2016 01:00 22,6 C 1,3 C 42 % 92 % 1013,4 hPa 0,0 l/m 2,8 km/h (1 Bft) SW 0,00 h 0,0 UV-I 0 W/m 0,1 C 1,2 C 6,6 km/h (2 Bft)
28.04.2016 02:00 22,5 C 1,3 C 43 % 92 % 1013,6 hPa 0,0 l/m 0,6 km/h (0 Bft) SW 0,00 h 0,0 UV-I 0 W/m 0,1 C 1,3 C 2,3 km/h (1 Bft)
28.04.2016 03:00 22,4 C 0,5 C 43 % 91 % 1013,7 hPa 0,0 l/m 0,5 km/h (0 Bft) S 0,00 h 0,0 UV-I 0 W/m -0,7 C 0,5 C 1,6 km/h (1 Bft)
28.04.2016 04:00 22,4 C 0,3 C 43 % 93 % 1013,7 hPa 0,0 l/m 0,2 km/h (0 Bft) S-SW 0,00 h 0,0 UV-I 0 W/m -0,8 C 0,3 C 1,4 km/h (1 Bft)
28.04.2016 05:00 22,4 C 0,4 C 44 % 93 % 1013,9 hPa 0,0 l/m 0,9 km/h (0 Bft) S-SW 0,00 h 0,0 UV-I 0 W/m -0,6 C 0,4 C 3,1 km/h (1 Bft)
28.04.2016 06:00 22,3 C 0,6 C 44 % 94 % 1014,2 hPa 0,0 l/m 2,7 km/h (1 Bft) W-SW 0,00 h 0,0 UV-I 15 W/m -0,3 C 0,5 C 6,5 km/h (2 Bft)
28.04.2016 07:00 22,6 C 1,0 C 43 % 93 % 1014,6 hPa 0,4 l/m 1,0 km/h (0 Bft) S 0,00 h 0,5 UV-I 67 W/m -0,0 C 1,0 C 2,8 km/h (1 Bft)
28.04.2016 08:00 22,7 C 1,3 C 43 % 93 % 1015,2 hPa 0,2 l/m 1,7 km/h (1 Bft) S 0,03 h 0,6 UV-I 73 W/m 0,3 C 1,3 C 4,0 km/h (1 Bft)
28.04.2016 09:00 22,7 C 2,3 C 42 % 90 % 1015,3 hPa 0,2 l/m 5,1 km/h (1 Bft) SW 0,87 h 0,9 UV-I 195 W/m 0,8 C 1,6 C 9,8 km/h (2 Bft)
28.04.2016 10:00 22,7 C 4,1 C 41 % 83 % 1015,6 hPa 0,0 l/m 5,4 km/h (1 Bft) W-SW 1,00 h 1,9 UV-I 484 W/m 1,5 C 3,5 C 10,1 km/h (2 Bft)
28.04.2016 11:00 22,6 C 5,6 C 41 % 73 % 1015,7 hPa 0,0 l/m 7,4 km/h (2 Bft) W 0,83 h 1,8 UV-I 352 W/m 1,1 C 4,2 C 13,0 km/h (3 Bft)
28.04.2016 12:00 22,5 C 6,0 C 39 % 70 % 1015,8 hPa 0,2 l/m 8,4 km/h (2 Bft) W-SW 0,87 h 3,1 UV-I 636 W/m 1,0 C 3,7 C 14,3 km/h (3 Bft)
28.04.2016 13:00 22,4 C 6,4 C 39 % 68 % 1015,7 hPa 0,0 l/m 7,3 km/h (2 Bft) W-SW 0,85 h 2,5 UV-I 443 W/m 0,9 C 4,8 C 12,9 km/h (3 Bft)
28.04.2016 14:00 22,6 C 6,5 C 41 % 69 % 1015,9 hPa 0,0 l/m 5,2 km/h (1 Bft) SW 0,98 h 2,8 UV-I 534 W/m 1,2 C 5,5 C 9,1 km/h (2 Bft)
28.04.2016 15:00 23,1 C 7,9 C 41 % 62 % 1015,5 hPa 0,0 l/m 8,8 km/h (2 Bft) S 0,87 h 2,9 UV-I 630 W/m 1,1 C 5,9 C 14,0 km/h (3 Bft)
28.04.2016 16:00 23,4 C 6,6 C 41 % 67 % 1015,9 hPa 0,0 l/m 9,2 km/h (2 Bft) S 0,42 h 1,5 UV-I 186 W/m 0,8 C 4,3 C 14,4 km/h (3 Bft)
28.04.2016 17:00 23,2 C 4,2 C 42 % 86 % 1016,4 hPa 1,2 l/m 1,0 km/h (0 Bft) O 0,83 h 1,1 UV-I 316 W/m 2,1 C 4,2 C 1,9 km/h (1 Bft)
28.04.2016 18:00 23,3 C 5,5 C 45 % 79 % 1016,5 hPa 0,2 l/m 0,5 km/h (0 Bft) S-SO 0,10 h 0,8 UV-I 53 W/m 2,2 C 5,5 C 1,0 km/h (0 Bft)
28.04.2016 19:00 23,4 C 3,4 C 46 % 85 % 1017,3 hPa 0,0 l/m 5,5 km/h (1 Bft) N-NO 0,00 h 0,0 UV-I 8 W/m 1,0 C 2,1 C 9,5 km/h (2 Bft)
28.04.2016 20:00 23,3 C 2,0 C 46 % 91 % 1017,9 hPa 0,6 l/m 5,0 km/h (1 Bft) N-NO 0,00 h 0,0 UV-I 0 W/m 0,6 C 1,6 C 8,0 km/h (2 Bft)
28.04.2016 21:00 23,5 C 1,5 C 45 % 93 % 1018,3 hPa 0,0 l/m 0,2 km/h (0 Bft) SO 0,00 h 0,0 UV-I 0 W/m 0,5 C 1,5 C 0,5 km/h (0 Bft)
28.04.2016 22:00 23,5 C 1,1 C 44 % 93 % 1018,6 hPa 0,0 l/m 0,0 km/h (0 Bft) N 0,00 h 0,0 UV-I 0 W/m 0,0 C 1,1 C 0,0 km/h (0 Bft)
28.04.2016 23:00 23,2 C 0,3 C 44 % 92 % 1018,8 hPa 0,0 l/m 0,0 km/h (0 Bft) N 0,00 h 0,0 UV-I 0 W/m -0,9 C 0,3 C 0,0 km/h (0 Bft)
29.04.2016 00:00 23,0 C -0,3 C 44 % 92 % 1019,1 hPa 0,0 l/m 0,0 km/h (0 Bft) N 0,00 h 0,0 UV-I 0 W/m -1,4 C -0,3 C 0,0 km/h (0 Bft)
29.04.2016 01:00 22,8 C -0,8 C 44 % 93 % 1019,3 hPa 0,0 l/m 0,0 km/h (0 Bft) N 0,00 h 0,0 UV-I 0 W/m -1,8 C -0,8 C 0,0 km/h (0 Bft)
29.04.2016 02:00 22,8 C -1,4 C 45 % 93 % 1019,3 hPa 0,0 l/m 0,0 km/h (0 Bft) N 0,00 h 0,0 UV-I 0 W/m -2,4 C -1,4 C 0,0 km/h (0 Bft)
29.04.2016 03:00 22,7 C -1,9 C 45 % 93 % 1019,6 hPa 0,0 l/m 0,0 km/h (0 Bft) N 0,00 h 0,0 UV-I 0 W/m -2,9 C -1,9 C 0,0 km/h (0 Bft)
29.04.2016 04:00 22,6 C -2,4 C 46 % 93 % 1019,7 hPa 0,0 l/m 0,0 km/h (0 Bft) N 0,00 h 0,0 UV-I 0 W/m -3,4 C -2,4 C 0,0 km/h (0 Bft)
29.04.2016 05:00 22,6 C -2,7 C 46 % 93 % 1019,8 hPa 0,0 l/m 0,0 km/h (0 Bft) N 0,00 h 0,0 UV-I 5 W/m -3,6 C -2,7 C 0,0 km/h (0 Bft)
29.04.2016 06:00 22,5 C -3,0 C 46 % 93 % 1020,2 hPa 0,0 l/m 0,0 km/h (0 Bft) N 0,00 h 0,0 UV-I 15 W/m -3,9 C -3,0 C 0,0 km/h (0 Bft)
29.04.2016 07:00 22,7 C -1,3 C 46 % 95 % 1020,5 hPa 0,2 l/m 0,0 km/h (0 Bft) N 0,68 h 0,6 UV-I 176 W/m -2,0 C -1,3 C 0,0 km/h (0 Bft)
29.04.2016 08:00 23,2 C 2,4 C 46 % 92 % 1020,8 hPa 0,2 l/m 0,0 km/h (0 Bft) N 1,00 h 1,0 UV-I 381 W/m 1,3 C 2,4 C 0,0 km/h (0 Bft)
29.04.2016 09:00 23,6 C 5,6 C 44 % 86 % 1020,8 hPa 0,0 l/m 0,1 km/h (0 Bft) NW 1,00 h 1,8 UV-I 556 W/m 3,5 C 5,6 C 0,6 km/h (0 Bft)
29.04.2016 10:00 23,6 C 8,7 C 43 % 69 % 1020,6 hPa 0,0 l/m 2,5 km/h (1 Bft) S 1,00 h 3,1 UV-I 733 W/m 3,1 C 8,6 C 5,7 km/h (1 Bft)
29.04.2016 11:00 23,8 C 9,9 C 40 % 56 % 1020,5 hPa 0,2 l/m 4,4 km/h (1 Bft) S-SO 1,00 h 4,0 UV-I 854 W/m 1,4 C 9,5 C 9,7 km/h (2 Bft)
29.04.2016 12:00 24,0 C 10,6 C 38 % 52 % 1020,2 hPa 0,0 l/m 4,6 km/h (1 Bft) S 1,00 h 4,3 UV-I 838 W/m 1,1 C 10,0 C 9,5 km/h (2 Bft)
29.04.2016 13:00 23,9 C 11,0 C 37 % 47 % 1019,8 hPa 0,0 l/m 4,7 km/h (1 Bft) S 1,00 h 3,6 UV-I 642 W/m 0,2 C 10,4 C 9,9 km/h (2 Bft)
29.04.2016 14:00 24,0 C 11,4 C 37 % 45 % 1019,7 hPa 0,0 l/m 4,4 km/h (1 Bft) S 1,00 h 3,2 UV-I 551 W/m -0,2 C 10,8 C 8,7 km/h (2 Bft)
29.04.2016 15:00 24,2 C 11,8 C 38 % 43 % 1019,5 hPa 0,0 l/m 2,0 km/h (1 Bft) S 1,00 h 2,5 UV-I 440 W/m -0,4 C 11,7 C 4,7 km/h (1 Bft)
29.04.2016 16:00 24,4 C 11,9 C 38 % 43 % 1019,2 hPa 0,0 l/m 1,3 km/h (1 Bft) S 0,82 h 1,8 UV-I 327 W/m -0,3 C 11,9 C 4,0 km/h (1 Bft)
29.04.2016 17:00 24,2 C 11,5 C 39 % 45 % 1019,0 hPa 0,0 l/m 0,9 km/h (0 Bft) S 0,30 h 1,1 UV-I 174 W/m -0,1 C 11,5 C 2,7 km/h (1 Bft)
29.04.2016 18:00 24,0 C 11,8 C 39 % 44 % 1018,6 hPa 0,0 l/m 1,8 km/h (1 Bft) S 0,17 h 0,7 UV-I 81 W/m -0,0 C 11,8 C 5,1 km/h (1 Bft)
29.04.2016 19:00 24,0 C 11,1 C 39 % 46 % 1018,5 hPa 0,0 l/m 0,1 km/h (0 Bft) S 0,00 h 0,0 UV-I 22 W/m -0,0 C 11,1 C 0,3 km/h (0 Bft)
29.04.2016 20:00 23,9 C 9,4 C 39 % 55 % 1018,6 hPa 0,0 l/m 0,0 km/h (0 Bft) N 0,00 h 0,0 UV-I 9 W/m 0,8 C 9,4 C 0,0 km/h (0 Bft)
29.04.2016 21:00 24,1 C 7,0 C 41 % 69 % 1018,8 hPa 0,0 l/m 0,0 km/h (0 Bft) N 0,00 h 0,0 UV-I 0 W/m 1,6 C 7,0 C 0,0 km/h (0 Bft)
29.04.2016 22:00 24,2 C 4,5 C 42 % 80 % 1018,9 hPa 0,0 l/m 0,0 km/h (0 Bft) N 0,00 h 0,0 UV-I 0 W/m 1,4 C 4,5 C 0,0 km/h (0 Bft)
29.04.2016 23:00 23,9 C 3,2 C 41 % 85 % 1018,6 hPa 0,0 l/m 0,0 km/h (0 Bft) N 0,00 h 0,0 UV-I 0 W/m 0,9 C 3,2 C 0,0 km/h (0 Bft)
30.04.2016 00:00 23,6 C 2,3 C 42 % 87 % 1018,6 hPa 0,0 l/m 0,0 km/h (0 Bft) N 0,00 h 0,0 UV-I 0 W/m 0,4 C 2,3 C 0,0 km/h (0 Bft)
30.04.2016 01:00 23,4 C 1,8 C 42 % 87 % 1018,5 hPa 0,0 l/m 0,0 km/h (0 Bft) N 0,00 h 0,0 UV-I 0 W/m -0,1 C 1,8 C 0,0 km/h (0 Bft)
30.04.2016 02:00 23,3 C 1,2 C 42 % 87 % 1018,3 hPa 0,0 l/m 0,0 km/h (0 Bft) N 0,00 h 0,0 UV-I 0 W/m -0,7 C 1,2 C 0,0 km/h (0 Bft)
30.04.2016 03:00 23,2 C 0,5 C 43 % 88 % 1018,2 hPa 0,0 l/m 0,0 km/h (0 Bft) N 0,00 h 0,0 UV-I 0 W/m -1,2 C 0,5 C 0,0 km/h (0 Bft)
30.04.2016 04:00 23,1 C 0,0 C 43 % 90 % 1018,2 hPa 0,0 l/m 0,0 km/h (0 Bft) N 0,00 h 0,0 UV-I 0 W/m -1,5 C 0,0 C 0,0 km/h (0 Bft)
30.04.2016 05:00 23,1 C -0,2 C 43 % 91 % 1018,3 hPa 0,0 l/m 0,0 km/h (0 Bft) N 0,00 h 0,0 UV-I 5 W/m -1,5 C -0,2 C 0,0 km/h (0 Bft)
30.04.2016 06:00 23,1 C -0,6 C 43 % 92 % 1018,5 hPa 0,0 l/m 0,0 km/h (0 Bft) N 0,00 h 0,0 UV-I 17 W/m -1,8 C -0,6 C 0,0 km/h (0 Bft)
30.04.2016 07:00 23,1 C -0,2 C 44 % 93 % 1018,5 hPa 0,0 l/m 0,0 km/h (0 Bft) N 0,00 h 0,0 UV-I 40 W/m -1,2 C -0,2 C 0,0 km/h (0 Bft)
30.04.2016 08:00 23,9 C -0,1 C 42 % 93 % 1018,2 hPa 0,0 l/m 0,0 km/h (0 Bft) N 0,00 h 0,0 UV-I 76 W/m -1,1 C -0,1 C 0,0 km/h (0 Bft)
30.04.2016 09:00 24,4 C 11,2 C 41 % 57 % 1018,0 hPa 0,0 l/m 0,1 km/h (0 Bft) SO 0,95 h 2,1 UV-I 537 W/m 3,0 C 11,2 C 0,3 km/h (0 Bft)
30.04.2016 10:00 23,5 C 14,3 C 39 % 46 % 1017,7 hPa 0,0 l/m 2,4 km/h (1 Bft) SO 1,00 h 3,1 UV-I 688 W/m 2,8 C 14,2 C 5,7 km/h (1 Bft)
30.04.2016 11:00 23,0 C 15,2 C 36 % 41 % 1017,4 hPa 0,0 l/m 5,0 km/h (1 Bft) O-SO 1,00 h 4,0 UV-I 757 W/m 2,2 C 15,0 C 11,2 km/h (2 Bft)
30.04.2016 12:00 22,4 C 15,8 C 32 % 39 % 1016,7 hPa 0,0 l/m 3,8 km/h (1 Bft) O-SO 1,00 h 4,4 UV-I 757 W/m 2,0 C 15,7 C 9,6 km/h (2 Bft)
30.04.2016 13:00 22,4 C 16,3 C 33 % 39 % 1016,2 hPa 0,0 l/m 3,4 km/h (1 Bft) SO 1,00 h 4,2 UV-I 700 W/m 2,3 C 16,1 C 8,1 km/h (2 Bft)
30.04.2016 14:00 22,5 C 17,1 C 33 % 38 % 1015,7 hPa 0,0 l/m 4,1 km/h (1 Bft) SO 1,00 h 4,1 UV-I 760 W/m 2,5 C 17,0 C 9,1 km/h (2 Bft)
30.04.2016 15:00 22,4 C 17,5 C 32 % 37 % 1015,4 hPa 0,0 l/m 2,9 km/h (1 Bft) O-SO 1,00 h 3,4 UV-I 690 W/m 2,5 C 17,3 C 6,6 km/h (2 Bft)
30.04.2016 16:00 22,5 C 17,5 C 33 % 36 % 1015,0 hPa 0,0 l/m 3,8 km/h (1 Bft) O-SO 0,92 h 2,1 UV-I 469 W/m 2,3 C 17,2 C 9,8 km/h (2 Bft)
30.04.2016 17:00 22,8 C 17,2 C 34 % 36 % 1014,7 hPa 0,0 l/m 1,4 km/h (1 Bft) O-NO 1,00 h 1,2 UV-I 302 W/m 1,9 C 17,2 C 4,2 km/h (1 Bft)
30.04.2016 18:00 22,9 C 16,3 C 35 % 38 % 1014,5 hPa 0,0 l/m 0,5 km/h (0 Bft) O 0,12 h 0,6 UV-I 109 W/m 1,8 C 16,3 C 2,3 km/h (1 Bft)
30.04.2016 19:00 23,2 C 15,3 C 37 % 41 % 1014,3 hPa 0,0 l/m 1,1 km/h (0 Bft) O-NO 0,00 h 0,0 UV-I 36 W/m 2,0 C 15,3 C 4,0 km/h (1 Bft)
30.04.2016 20:00 23,3 C 13,2 C 39 % 48 % 1014,3 hPa 0,0 l/m 6,0 km/h (2 Bft) O-NO 0,00 h 0,0 UV-I 9 W/m 2,5 C 12,6 C 12,2 km/h (2 Bft)
30.04.2016 21:00 23,4 C 11,9 C 40 % 52 % 1014,4 hPa 0,0 l/m 6,0 km/h (2 Bft) O-NO 0,00 h 0,0 UV-I 0 W/m 2,2 C 11,1 C 13,2 km/h (3 Bft)
30.04.2016 22:00 23,5 C 11,0 C 40 % 52 % 1014,4 hPa 0,0 l/m 6,3 km/h (2 Bft) O-NO 0,00 h 0,0 UV-I 0 W/m 1,6 C 10,4 C 14,1 km/h (3 Bft)
30.04.2016 23:00 23,2 C 10,5 C 40 % 53 % 1014,4 hPa 0,0 l/m 7,5 km/h (2 Bft) O-NO 0,00 h 0,0 UV-I 0 W/m 1,4 C 9,3 C 13,9 km/h (3 Bft)
01.05.2016 00:00 22,9 C 10,2 C 40 % 55 % 1014,4 hPa 0,0 l/m 3,6 km/h (1 Bft) O-NO 0,00 h 0,0 UV-I 0 W/m 1,6 C 10,0 C 8,7 km/h (2 Bft)
01.05.2016 01:00 22,8 C 9,5 C 41 % 58 % 1014,4 hPa 0,0 l/m 1,3 km/h (1 Bft) O-NO 0,00 h 0,0 UV-I 0 W/m 1,6 C 9,4 C 4,3 km/h (1 Bft)
01.05.2016 02:00 22,8 C 9,1 C 41 % 59 % 1014,3 hPa 0,0 l/m 1,4 km/h (1 Bft) O 0,00 h 0,0 UV-I 0 W/m 1,5 C 9,1 C 4,4 km/h (1 Bft)
01.05.2016 03:00 22,7 C 9,0 C 41 % 59 % 1014,6 hPa 0,0 l/m 1,9 km/h (1 Bft) O-NO 0,00 h 0,0 UV-I 0 W/m 1,5 C 9,0 C 4,9 km/h (1 Bft)
01.05.2016 04:00 22,7 C 8,9 C 42 % 60 % 1014,8 hPa 0,0 l/m 2,0 km/h (1 Bft) O-NO 0,00 h 0,0 UV-I 0 W/m 1,7 C 8,8 C 4,1 km/h (1 Bft)
01.05.2016 05:00 22,7 C 8,4 C 42 % 64 % 1014,9 hPa 0,0 l/m 0,9 km/h (0 Bft) N 0,00 h 0,0 UV-I 5 W/m 1,9 C 8,4 C 2,4 km/h (1 Bft)
01.05.2016 06:00 22,7 C 8,9 C 42 % 63 % 1015,0 hPa 0,0 l/m 3,7 km/h (1 Bft) O-NO 0,00 h 0,0 UV-I 31 W/m 2,2 C 8,5 C 10,1 km/h (2 Bft)
01.05.2016 07:00 22,7 C 10,4 C 43 % 59 % 1015,5 hPa 0,0 l/m 8,1 km/h (2 Bft) O-NO 0,18 h 0,5 UV-I 118 W/m 2,7 C 8,7 C 16,3 km/h (3 Bft)
01.05.2016 08:00 22,9 C 11,5 C 43 % 58 % 1016,0 hPa 0,0 l/m 5,1 km/h (1 Bft) O-NO 0,78 h 0,9 UV-I 228 W/m 3,6 C 10,9 C 11,9 km/h (2 Bft)
01.05.2016 09:00 23,1 C 12,9 C 45 % 58 % 1016,2 hPa 0,0 l/m 10,1 km/h (2 Bft) O-NO 1,00 h 1,4 UV-I 319 W/m 4,8 C 10,6 C 14,4 km/h (3 Bft)
01.05.2016 10:00 23,2 C 13,7 C 43 % 56 % 1016,5 hPa 0,0 l/m 7,9 km/h (2 Bft) O-NO 1,00 h 2,0 UV-I 374 W/m 5,2 C 12,4 C 15,7 km/h (3 Bft)
01.05.2016 11:00 22,9 C 15,2 C 39 % 50 % 1016,7 hPa 0,0 l/m 10,8 km/h (2 Bft) O-NO 1,00 h 3,2 UV-I 594 W/m 4,7 C 13,0 C 21,1 km/h (4 Bft)
01.05.2016 12:00 22,9 C 15,6 C 39 % 44 % 1017,1 hPa 0,0 l/m 11,3 km/h (2 Bft) O 1,00 h 3,6 UV-I 632 W/m 3,3 C 13,3 C 22,9 km/h (4 Bft)
01.05.2016 13:00 23,0 C 15,5 C 38 % 45 % 1017,4 hPa 0,0 l/m 6,6 km/h (2 Bft) O-NO 1,00 h 2,6 UV-I 404 W/m 3,6 C 14,6 C 14,0 km/h (3 Bft)
01.05.2016 14:00 23,3 C 15,3 C 39 % 47 % 1017,8 hPa 0,0 l/m 6,2 km/h (2 Bft) O-NO 0,75 h 1,7 UV-I 259 W/m 4,1 C 14,5 C 13,7 km/h (3 Bft)
01.05.2016 15:00 23,6 C 15,7 C 39 % 45 % 1018,0 hPa 0,0 l/m 8,5 km/h (2 Bft) NO 1,00 h 1,7 UV-I 290 W/m 3,8 C 14,3 C 17,3 km/h (3 Bft)
01.05.2016 16:00 23,8 C 15,8 C 40 % 44 % 1018,2 hPa 0,0 l/m 6,1 km/h (2 Bft) O-NO 1,00 h 1,3 UV-I 240 W/m 3,6 C 15,0 C 12,8 km/h (3 Bft)
01.05.2016 17:00 23,5 C 15,4 C 39 % 45 % 1018,6 hPa 0,0 l/m 5,5 km/h (1 Bft) O-NO 0,63 h 0,8 UV-I 159 W/m 3,4 C 14,8 C 12,8 km/h (3 Bft)
01.05.2016 18:00 23,5 C 14,7 C 40 % 52 % 1018,9 hPa 0,0 l/m 9,8 km/h (2 Bft) N-NO 0,00 h 0,5 UV-I 75 W/m 4,8 C 12,6 C 17,1 km/h (3 Bft)
01.05.2016 19:00 23,6 C 13,4 C 41 % 58 % 1019,7 hPa 0,0 l/m 10,6 km/h (2 Bft) N-NO 0,00 h 0,0 UV-I 41 W/m 5,3 C 11,1 C 17,2 km/h (3 Bft)
01.05.2016 20:00 23,9 C 12,1 C 42 % 62 % 1020,4 hPa 0,0 l/m 5,7 km/h (1 Bft) N-NO 0,00 h 0,0 UV-I 10 W/m 4,9 C 11,4 C 11,1 km/h (2 Bft)
01.05.2016 21:00 23,8 C 10,5 C 42 % 67 % 1021,1 hPa 0,0 l/m 7,5 km/h (2 Bft) N 0,00 h 0,0 UV-I 0 W/m 4,6 C 9,5 C 12,3 km/h (3 Bft)
01.05.2016 22:00 23,4 C 9,5 C 42 % 70 % 1021,7 hPa 0,0 l/m 7,3 km/h (2 Bft) N 0,00 h 0,0 UV-I 0 W/m 4,3 C 8,6 C 11,1 km/h (2 Bft)
01.05.2016 23:00 23,3 C 8,6 C 43 % 72 % 1022,0 hPa 0,0 l/m 1,2 km/h (1 Bft) N-NO 0,00 h 0,0 UV-I 0 W/m 3,8 C 8,5 C 2,7 km/h (1 Bft)
Min-Datum _ 27.04.16 29.04.16 30.04.16 30.04.16 26.04.16 - 25.04.16 - - - - 29.04.16 27.04.16 25.04.16
_ Min-Zeit 09:26 06:33 12:43 16:02 08:33 - 00:00 - - - - 06:33 10:02 00:00
Minimum _ 22,1 C -3,1 C 31 % 33 % 999,5 hPa - 0,0 km/h (0 Bft) - - - - -4,1 C -8,7 C 0,0 km/h (0 Bft)
Max-Datum _ 30.04.16 30.04.16 26.04.16 29.04.16 01.05.16 28.04.16 27.04.16 - 28.04.16 29.04.16 25.04.16 01.05.16 30.04.16 27.04.16
_ Max-Zeit 09:07 15:55 06:44 07:22 23:48 17:27 15:04 - 10:11 13:01 13:09 10:54 15:55 14:00
Maximum _ 25,3 C 18,5 C 48 % 96 % 1022,1 hPa 1,2 l/m 27,4 km/h
W-SW (4 Bft)
- 0,03 h 5,3 UV-I 1130 W/m 5,7 C 18,5 C 40,2 km/h
W-SW (6 Bft)
Durchschnitt _ 23,0 C 5,4 C 42 % 73 % 1012,8 hPa #10,6 l/m 5,3 km/h (1 Bft) S #57:17 h 1,8 UV-I 268 W/m 0,4 C 4,2 C 9,4 km/h (2 Bft)